Hettinger, ND

1:16 AM MST on December 09, 2016 (GMT -0700)
Hettinger Municipal

Weather History for KHEI - December, 2013

Change the Weather History Date:

Saturday, December 7, 2013

  Actual Average Record
Temperature  
Mean Temperature -20 °F -  
Max Temperature -11 °F 31 °F 49 °F (2015)
Min Temperature -29 °F 9 °F -29 °F (2013)
Degree Days  
Heating Degree Days 85 45  
Month to date heating degree days 420 308  
Since 1 July heating degree days 2444 2438  
Moisture  
Dew Point -25 °F    
Average Humidity 76    
Maximum Humidity 82    
Minimum Humidity 69    
Precipitation  
Precipitation 0.00 in 0.00 in 0.03 in (2011)
Month to date precipitation 0.02 0.04  
Year to date precipitation 24.75 15.83  
Sea Level Pressure  
Sea Level Pressure 30.63 in    
Wind  
Wind Speed 3 mph (West)    
Max Wind Speed 12 mph    
Max Gust Speed 14 mph    
Visibility 10 miles    
Events Snow    
T = Trace of Precipitation, MM = Missing Value Source: NWS Daily Summary

Daily Weather History Graph

Daily Weather History Graph

Search for Another Location

Airport or City:

Trip Planner

Search our weather history database for the weather conditions in past years. The results will help you decide how hot, cold, wet, or windy it might be!

Date:

Astronomy

Dec. 07, 2013 Rise Set
Actual Time 7:19 AM MST 4:05 PM MST
Civil Twilight 6:44 AM MST 4:39 PM MST
Nautical Twilight 6:07 AM MST 5:17 PM MST
Astronomical Twilight 5:30 AM MST 5:53 PM MST
Moon 10:53 AM MST (12/7) 10:02 PM MST (12/7)
Length of Visible Light 9h 54m
Length of Day
8h 46m
Waxing Crescent, 30% of the Moon is Illuminated
Dec 7
Waxing Crescent
Dec 9
First Quarter
Dec 17
Full
Dec 25
Last Quarter
Jan 1
New

Hourly Weather History & Observations

Time (MST) Temp. Windchill Dew Point Humidity Pressure Visibility Wind Dir Wind Speed Gust Speed Precip Events Conditions
12:53 AM -25.1 °F -39.1 °F -29.0 °F 82% 30.75 in 10.0 mi West 4.6 mph - N/A   Clear
1:53 AM -25.1 °F -43.1 °F -29.9 °F 78% 30.76 in 10.0 mi SW 6.9 mph - N/A   Clear
2:53 AM -26.0 °F -42.4 °F -31.0 °F 77% 30.76 in 10.0 mi WNW 5.8 mph - N/A   Clear
3:53 AM -26.0 °F -40.2 °F -31.0 °F 77% 30.76 in 10.0 mi West 4.6 mph - N/A   Clear
4:53 AM -27.0 °F -43.7 °F -32.1 °F 77% 30.76 in 10.0 mi NW 5.8 mph - N/A   Clear
5:53 AM -27.0 °F -45.5 °F -32.1 °F 77% 30.75 in 10.0 mi West 6.9 mph - N/A   Clear
6:53 AM -27.0 °F -41.5 °F -33.0 °F 73% 30.74 in 10.0 mi WNW 4.6 mph - N/A   Clear
7:53 AM -25.1 °F - -29.9 °F 78% 30.74 in 10.0 mi Calm Calm - N/A   Clear
8:53 AM -22.0 °F -33.0 °F -27.0 °F 77% 30.76 in 10.0 mi WNW 3.5 mph - N/A   Clear
9:53 AM -18.0 °F -33.0 °F -24.0 °F 74% 30.74 in 10.0 mi West 5.8 mph - N/A   Clear
10:53 AM -16.1 °F -26.2 °F -20.9 °F 79% 30.71 in 10.0 mi WSW 3.5 mph - N/A   Clear
11:53 AM -14.1 °F -26.3 °F -20.0 °F 75% 30.68 in 10.0 mi West 4.6 mph - N/A   Clear
12:53 PM -11.9 °F -23.8 °F -18.9 °F 71% 30.63 in 10.0 mi West 4.6 mph - N/A   Clear
1:53 PM -11.0 °F - -18.9 °F 68% 30.60 in 10.0 mi Calm Calm - N/A   Clear
2:53 PM -11.9 °F - -18.9 °F 71% 30.58 in 10.0 mi Calm Calm - N/A   Clear
3:53 PM -13.0 °F - -18.9 °F 75% 30.56 in 10.0 mi Calm Calm - N/A   Clear
4:53 PM -13.0 °F - -18.9 °F 75% 30.54 in 10.0 mi Calm Calm - N/A   Overcast
5:53 PM -16.1 °F -26.2 °F -20.9 °F 79% 30.55 in 10.0 mi South 3.5 mph - N/A   Clear
6:53 PM -17.0 °F - -23.1 °F 74% 30.53 in 10.0 mi Calm Calm - N/A   Mostly Cloudy
7:53 PM -17.0 °F - -23.1 °F 74% 30.52 in 10.0 mi Calm Calm - N/A   Clear
8:53 PM -24.0 °F - -29.0 °F 77% 30.51 in 10.0 mi Calm Calm - N/A   Clear
9:53 PM -18.9 °F - -24.0 °F 78% 30.47 in 10.0 mi Calm Calm - N/A   Overcast
10:53 PM -15.0 °F - -20.0 °F 78% 30.43 in 10.0 mi Calm Calm - N/A   Overcast
11:53 PM -11.9 °F -21.5 °F -18.0 °F 74% 30.38 in 5.0 mi East 3.5 mph - 0.00 in Snow Light Snow